This demonstration page uses our WeatherBlox Daily Observations layout. Learn more.

Left ArrowRight Arrow

34.16533, -84.80231

Hourly Observations for October 4, 2022

Temp ( °F °C ) Dew Point ( °F °C ) Humidity (%) Winds ( mph kmh ) Pressure ( in mb ) Visibility ( mi km ) Precip ( " mm )
12:15 am 00:15 Clear 57 14 52 11 82 82 Calm 30.13 1020 10 16 0.00 0.00
12:35 am 00:35 Clear 57 14 52 11 82 82 Calm 30.13 1020 10 16 0.00 0.00
12:55 am 00:55 Clear 55 13 52 11 88 88 Calm 30.13 1020 10 16 0.00 0.00
1:15 am 01:15 Clear 55 13 52 11 88 88 Calm 30.13 1020 10 16 0.00 0.00
1:35 am 01:35 Clear 54 12 52 11 94 94 Calm 30.13 1020 10 16 0.00 0.00
1:55 am 01:55 Clear 54 12 52 11 94 94 Calm 30.13 1020 10 16 0.00 0.00
2:15 am 02:15 Clear 54 12 52 11 94 94 Calm 30.13 1020 10 16 0.00 0.00
2:35 am 02:35 Clear 54 12 50 10 88 88 Calm 30.13 1020 10 16 0.00 0.00
2:55 am 02:55 Clear 54 12 50 10 88 88 Calm 30.13 1020 10 16 0.00 0.00
3:15 am 03:15 Clear 54 12 52 11 94 94 Calm 30.13 1020 10 16 0.00 0.00
3:35 am 03:35 Clear 52 11 52 11 100 100 Calm 30.13 1020 10 16 0.00 0.00
3:55 am 03:55 Clear 52 11 50 10 94 94 Calm 30.13 1020 10 16 0.00 0.00
4:15 am 04:15 Clear 52 11 50 10 94 94 Calm 30.13 1020 9 14 0.00 0.00
4:35 am 04:35 Clear 52 11 50 10 94 94 Calm 30.13 1020 9 14 0.00 0.00
4:55 am 04:55 Mostly Clear 52 11 50 10 94 94 Calm 30.13 1020 10 16 0.00 0.00
5:15 am 05:15 Mostly Clear 52 11 50 10 94 94 Calm 30.13 1020 10 16 0.00 0.00
5:35 am 05:35 Partly Cloudy 50 10 50 10 100 100 Calm 30.13 1020 10 16 0.00 0.00
5:55 am 05:55 Cloudy 50 10 50 10 100 100 Calm 30.14 1021 10 16 0.00 0.00
6:15 am 06:15 Cloudy 50 10 48 9 93 93 Calm 30.15 1021 10 16 0.00 0.00
6:35 am 06:35 Cloudy 50 10 48 9 93 93 Calm 30.16 1021 10 16 0.00 0.00
6:55 am 06:55 Cloudy 50 10 48 9 93 93 Calm 30.16 1021 10 16 0.00 0.00
7:15 am 07:15 Cloudy 52 11 50 10 94 94 Calm 30.16 1021 10 16 0.00 0.00
7:35 am 07:35 Cloudy 52 11 50 10 94 94 Calm 30.17 1022 10 16 0.00 0.00
7:55 am 07:55 Cloudy 52 11 50 10 94 94 Calm 30.17 1022 10 16 0.00 0.00
8:15 am 08:15 Cloudy 54 12 50 10 88 88 Calm 30.16 1021 10 16 0.00 0.00
8:35 am 08:35 Cloudy 54 12 52 11 94 94 Calm 30.16 1021 10 16 0.00 0.00
8:55 am 08:55 Cloudy 54 12 52 11 94 94 Calm 30.18 1022 8 13 0.00 0.00
9:15 am 09:15 Cloudy 55 13 54 12 94 94 Calm 30.18 1022 10 16 0.00 0.00
9:35 am 09:35 Cloudy 57 14 54 12 88 88 Calm 30.18 1022 10 16 0.00 0.00
9:55 am 09:55 Cloudy 57 14 54 12 88 88 Calm 30.18 1022 10 16 0.00 0.00
10:15 am 10:15 Mostly Cloudy 59 15 55 13 88 88 Calm 30.18 1022 10 16 0.00 0.00
10:35 am 10:35 Partly Cloudy 63 17 55 13 77 77 Calm 30.17 1022 10 16 0.00 0.00
10:55 am 10:55 Mostly Sunny 64 18 55 13 73 73 Calm 30.17 1022 10 16 0.00 0.00
11:15 am 11:15 Sunny 66 19 55 13 68 68 VRB 3 6 30.16 1021 10 16 0.00 0.00
11:35 am 11:35 Sunny 68 20 55 13 64 64 SW 3 6 30.15 1021 10 16 0.00 0.00
11:55 am 11:55 Sunny 66 19 55 13 68 68 VRB 3 6 30.16 1021 10 16 0.00 0.00
12:15 pm 12:15 Mostly Cloudy 68 20 55 13 64 64 undefined N/A 30.14 1021 10 16 0.00 0.00
12:35 pm 12:35 Mostly Cloudy 70 21 55 13 60 60 Calm 30.14 1021 10 16 0.00 0.00
12:55 pm 12:55 Cloudy 70 21 55 13 60 60 VRB 5 7 30.13 1020 10 16 0.00 0.00
1:15 pm 13:15 Mostly Cloudy 72 22 55 13 57 57 W 7 11 30.12 1020 10 16 0.00 0.00
1:35 pm 13:35 Partly Cloudy 72 22 54 12 53 53 Calm 30.12 1020 10 16 0.00 0.00
1:55 pm 13:55 Partly Cloudy 72 22 55 13 57 57 Calm 30.11 1020 10 16 0.00 0.00
2:15 pm 14:15 Partly Cloudy 73 23 54 12 50 50 SW 7 11 30.10 1019 10 16 0.00 0.00
2:35 pm 14:35 Partly Cloudy 73 23 54 12 50 50 VRB 6 9 30.08 1019 10 16 0.00 0.00
2:55 pm 14:55 Mostly Sunny 72 22 52 11 50 50 Calm 30.08 1019 10 16 0.00 0.00
3:15 pm 15:15 Mostly Sunny 73 23 52 11 47 47 VRB 6 9 30.06 1018 10 16 0.00 0.00
3:35 pm 15:35 Sunny 72 22 52 11 50 50 undefined N/A 30.06 1018 10 16 0.00 0.00
3:55 pm 15:55 Mostly Sunny 75 24 50 10 41 41 WNW 8 13 30.04 1017 10 16 0.00 0.00
4:15 pm 16:15 Mostly Sunny 75 24 50 10 41 41 Calm 30.04 1017 10 16 0.00 0.00
4:35 pm 16:35 Sunny 75 24 50 10 41 41 VRB 3 6 30.03 1017 10 16 0.00 0.00
4:55 pm 16:55 Sunny 75 24 50 10 41 41 Calm 30.03 1017 10 16 0.00 0.00
5:15 pm 17:15 Sunny 75 24 50 10 41 41 VRB 6 9 30.03 1017 10 16 0.00 0.00
5:35 pm 17:35 Sunny 75 24 50 10 41 41 W 8 13 30.03 1017 10 16 0.00 0.00
5:55 pm 17:55 Sunny 75 24 50 10 41 41 W 6 9 30.02 1017 10 16 0.00 0.00
6:15 pm 18:15 Sunny 75 24 50 10 41 41 W 7 11 30.02 1017 10 16 0.00 0.00
6:35 pm 18:35 Sunny 73 23 50 10 44 44 Calm 30.02 1017 10 16 0.00 0.00
6:55 pm 18:55 Sunny 72 22 50 10 46 46 Calm 30.04 1017 10 16 0.00 0.00
7:15 pm 19:15 Sunny 72 22 50 10 46 46 Calm 30.04 1017 10 16 0.00 0.00
7:35 pm 19:35 Clear 70 21 50 10 49 49 Calm 30.04 1017 10 16 0.00 0.00
7:55 pm 19:55 Clear 68 20 50 10 53 53 Calm 30.05 1018 10 16 0.00 0.00
8:15 pm 20:15 Clear 66 19 50 10 56 56 Calm 30.06 1018 10 16 0.00 0.00
8:35 pm 20:35 Clear 64 18 50 10 59 59 Calm 30.07 1018 10 16 0.00 0.00
8:55 pm 20:55 Clear 64 18 50 10 59 59 Calm 30.07 1018 10 16 0.00 0.00
9:15 pm 21:15 Clear 64 18 48 9 56 56 Calm 30.07 1018 10 16 0.00 0.00
9:35 pm 21:35 Clear 61 16 52 11 72 72 Calm 30.07 1018 10 16 0.00 0.00
9:55 pm 21:55 Clear 61 16 50 10 68 68 Calm 30.07 1018 10 16 0.00 0.00
10:15 pm 22:15 Clear 59 15 50 10 72 72 Calm 30.08 1018 10 16 0.00 0.00
10:35 pm 22:35 Clear 57 14 50 10 77 77 Calm 30.09 1019 10 16 0.00 0.00
10:55 pm 22:55 Clear 55 13 52 11 88 88 Calm 30.09 1019 10 16 0.00 0.00
11:15 pm 23:15 Clear 55 13 52 11 88 88 Calm 30.09 1019 10 16 0.00 0.00
11:35 pm 23:35 Clear 54 12 52 11 94 94 Calm 30.09 1019 10 16 0.00 0.00
11:55 pm 23:55 Clear 54 12 50 10 88 88 Calm 30.09 1019 10 16 0.00 0.00

Powered by AerisWeather